Flag for Tonga Weather past 2 weeks in Nukualofa, Tonga

Now
77 °F

Partly cloudy.


Feels Like: 79 °F
Forecast: 75 / 82 °F
Wind: 9 mph from Southeast

Location: Fua'Amotu

Current Time: Dec 19, 2014 at 11:57:19 PM

Latest Report: Dec 19, 2014 at 11:00 PM


Visibility: N/A

Pressure: 30.01 "Hg

Humidity: 79%

Dew point: 70 °F

Location of NukualofaLocation

Historic Weather in Nukualofa — Graph

°F

Nukualofa temperature yesterday

Maximum temperature yesterday: 86 °F (at 11:00 AM)
Minimum temperature yesterday: 77 °F (at 12:00 AM)
Average temperature yesterday: 81 °F

Past Weeks' High & Low Weather Summary

 TemperatureHumidityPressure
High86 °F (Dec 15, 1:00 PM)94% (Dec 10, 5:00 AM)30.04 "Hg (Dec 10, 5:00 AM)
Low64 °F (Dec 10, 2:00 AM)42% (Dec 9, 11:00 AM)29.83 "Hg (Dec 16, 2:00 PM)
Average77 °F72%29.96 "Hg
* Reported Dec 4 10:00 PM — Dec 19 10:00 PM, Nukualofa, Weather by CustomWeather, © 2014

Note: Actual official high and low records may vary slightly from our data, if they occured in-between our weather recording intervals... More about our weather records

Advertising

Nukualofa weather history for previous 24 hours

 ConditionsComfort  
Time TempWeatherWind HumidityBarometerVisibility
10:00 PM
Dec 19
77 °FPassing clouds.10 mph79%29.98 "HgN/A
9:00 PM77 °FPassing clouds.6 mph83%29.98 "HgN/A
8:00 PM77 °FPassing clouds.9 mph83%29.95 "HgN/A
7:00 PM77 °FPartly cloudy.9 mph83%29.95 "HgN/A
6:00 PM79 °FScattered showers. Broken clouds.10 mph79%29.92 "HgN/A
5:00 PM84 °FPartly sunny.14 mph66%29.92 "HgN/A
4:00 PM84 °FPartly sunny.14 mph66%29.92 "HgN/A
3:00 PM84 °FPassing clouds.12 mph62%29.92 "HgN/A
2:00 PM84 °FPassing clouds.15 mph62%29.92 "HgN/A
1:00 PM86 °FScattered clouds.12 mph59%29.95 "HgN/A
12:00 PM84 °FPassing clouds.14 mph62%29.95 "HgN/A
11:00 AM84 °FScattered clouds.14 mph62%29.98 "HgN/A
10:00 AM84 °FScattered clouds.16 mph62%29.98 "HgN/A
9:00 AM81 °FPassing clouds.15 mph74%29.98 "HgN/A
8:00 AM81 °FPassing clouds.10 mph70%29.98 "HgN/A
7:00 AM77 °FPassing clouds.8 mph74%29.95 "HgN/A
6:00 AM77 °FPassing clouds.6 mph74%29.95 "HgN/A
5:00 AM77 °FPassing clouds.6 mph79%29.95 "HgN/A
4:00 AM75 °FPassing clouds.6 mph83%29.95 "HgN/A
3:00 AM79 °FPassing clouds.No wind70%29.95 "HgN/A
2:00 AM77 °FPassing clouds.No wind79%29.98 "HgN/A
1:00 AM77 °FPassing clouds.7 mph79%30.01 "HgN/A
12:00 AM77 °FPassing clouds.3 mph79%30.04 "HgN/A
11:00 PM
Dec 18
77 °FPassing clouds.3 mph79%30.04 "HgN/A
Weather by CustomWeather, © 2014

See weather overviewHow to use our weather pages